#timestamp,LO_Frequency,Hit,StdDev 
1614294015.5,286047002.0,N
1614294035.3,286047005.4,N
1614294055.2,286047008.9,Y
1614294075.0,286047007.0,P
1614294075.9,286047007.0,P
1614294095.8,286047007.8,P
1614294115.6,286047008.4,Y
1614294135.4,286047005.2,P
1614294155.3,286047007.4,P
1614294175.1,286047006.0,P
1614294195.8,286047001.3,N
1614294215.7,286047002.8,N
1614294235.5,286047001.8,N
1614294255.4,286047001.7,N
1614294275.2,286047005.8,N
1614294295.0,286047009.1,Y
1614294295.9,286047009.1,P
1614294315.8,286047004.2,N
1614294335.6,286047003.1,N
1614294355.4,286047004.7,N
1614294375.3,286047006.1,N
1614294395.1,286047008.2,Y
1614294415.9,286047003.5,P
1614294435.7,286047006.5,P
1614294455.5,286047010.9,P
1614294475.4,286047009.3,Y
1614294495.2,286047001.4,P
1614294515.0,286047004.6,N
1614294516.0,286047004.6,N
1614294535.8,286047005.6,Y
1614294555.6,286046999.1,P
1614294575.5,286047000.9,N
1614294595.3,286047002.1,N
1614294615.1,286047000.9,N
1614294635.9,286047001.0,N
1614294655.7,286047002.0,N
1614294675.6,286047002.1,N
1614294695.4,286047003.6,N
1614294715.2,286047003.0,N
1614294735.1,286047005.4,Y
1614294736.0,286047005.4,P
1614294755.8,286046999.9,N
1614294775.6,286047004.4,N
1614294795.5,286047005.2,N
1614294815.3,286047005.4,N
1614294835.2,286047006.1,N
1614294855.9,286047007.0,Y
1614294875.7,286047000.0,P
1614294895.6,286047002.3,N
1614294915.4,286047004.4,N
1614294935.2,286047003.5,N
1614294955.1,286047003.4,N
1614294956.0,286047003.4,N
1614294975.8,286047004.2,Y
1614294995.7,286046999.7,P
1614295015.5,286047000.6,N
1614295035.3,286046998.7,N
1614295055.2,286046998.5,N
1614295075.0,286047000.3,N
1614295075.9,286047000.3,N
1614295095.8,286047002.7,N
1614295115.6,286047002.2,N
1614295135.4,286047001.6,N
1614295155.3,286047005.9,Y
1614295175.1,286047004.3,P
1614295195.8,286047003.7,N
1614295215.7,286047001.9,N
1614295235.5,286047003.9,N
1614295255.4,286047004.4,Y
1614295275.2,286047001.4,P
1614295295.0,286046999.8,N
1614295295.9,286046999.8,N
1614295315.8,286047002.0,N
1614295335.6,286047004.9,Y
1614295355.4,286047008.1,P
1614295375.3,286047007.6,N
1614295395.1,286047006.2,N
1614295415.9,286047008.0,N
1614295435.7,286047009.6,Y
1614295455.5,286047005.2,P
1614295475.4,286047005.2,P
1614295495.2,286047003.6,P
1614295515.0,286047007.8,Y
1614295516.0,286047007.8,P
1614295535.8,286047007.3,P
1614295555.6,286047009.7,P
1614295575.5,286047012.9,Y
1614295595.3,286047004.6,P
1614295615.1,286047003.0,N
1614295635.0,286047003.6,N
1614295635.9,286047003.6,N
1614295655.8,286047004.6,N
1614295675.6,286047008.6,Y
1614295695.5,286047005.8,P
1614295715.3,286047005.2,P
1614295735.1,286047002.9,P
1614295755.9,286047006.1,Y
1614295775.7,286047006.8,P
1614295795.5,286047008.0,P
1614295815.4,286047007.8,P
1614295835.2,286047010.2,Y
1614295855.1,286047007.6,P
1614295856.0,286047007.6,P
1614295875.8,286047006.1,P
1614295895.6,286047006.2,Y
1614295915.5,286047002.8,P
1614295935.3,286047004.4,N
1614295955.2,286047001.3,N
1614295975.9,286047000.2,N
1614295995.7,286047000.1,N
1614296015.6,286047001.3,N
1614296035.4,286047003.0,N
1614296055.2,286047006.7,Y
1614296075.1,286047006.1,P
1614296076.0,286047006.1,P
1614296095.8,286047010.4,P
1614296115.7,286047008.2,N
1614296135.5,286047010.1,Y
1614296155.3,286047002.0,P
1614296175.2,286047000.6,N
1614296195.0,286046998.5,N
1614296195.9,286046998.5,N
1614296215.8,286046997.7,N
1614296235.6,286047001.1,N
1614296255.4,286047003.6,N
1614296275.3,286046995.3,N
1614296295.1,286046994.7,N
1614296315.8,286046995.0,N
1614296335.7,286046998.5,N
1614296355.5,286047000.3,N
1614296375.4,286046999.4,N
1614296395.2,286046998.8,N
1614296415.0,286047002.7,N
1614296415.9,286047002.7,N
1614296435.8,286047002.1,N
1614296455.7,286047002.8,N
1614296475.5,286047002.6,N
1614296495.3,286047000.0,N
1614296515.2,286047004.2,N
1614296535.0,286047003.3,N
1614296535.9,286047003.3,N
1614296555.8,286047003.9,N
1614296575.6,286047003.8,N
1614296595.5,286047006.5,N
1614296615.3,286047010.5,Y
1614296635.2,286047012.0,P
1614296655.9,286047013.9,N
1614296675.7,286047012.9,N
1614296695.6,286047011.7,N
1614296715.4,286047010.4,N
1614296735.2,286047011.4,N
1614296755.1,286047009.7,N
1614296756.0,286047009.7,N
1614296775.8,286047012.5,Y
1614296795.7,286047007.4,P
1614296815.5,286047007.6,P
1614296835.3,286047005.7,P
1614296855.2,286047005.0,Y
1614296875.0,286046998.2,P
1614296875.9,286046998.2,N
1614296895.8,286047001.2,N
1614296915.6,286047000.7,N
1614296935.4,286046999.3,N
1614296955.3,286046997.7,N
1614296975.1,286046997.5,N
1614296995.9,286046998.2,N
1614297015.7,286046997.6,N
1614297035.5,286046999.1,N
1614297055.4,286047000.8,N
1614297075.2,286047011.9,Y
1614297095.0,286046999.1,P
1614297095.9,286046999.1,P
1614297115.8,286046996.8,P
1614297135.6,286046998.3,N
1614297155.5,286047001.2,N
1614297175.3,286047002.1,N
1614297195.1,286047003.9,N
1614297215.9,286047000.0,N
1614297235.7,286047000.0,N
1614297255.5,286047000.1,N
1614297275.4,286047001.7,N
1614297295.2,286047003.4,N
1614297315.1,286047005.1,N
1614297316.0,286047005.1,N
1614297335.8,286047005.7,N
1614297355.6,286047005.1,N
1614297375.5,286047006.4,N
1614297395.3,286047006.9,N
1614297415.1,286047004.5,N
1614297435.9,286047008.0,N
1614297455.7,286047012.7,Y
1614297475.6,286047011.0,P
1614297495.4,286047013.8,P
1614297515.2,286047014.2,N
1614297535.1,286047018.5,Y
1614297536.0,286047018.5,P
1614297555.8,286047006.2,N
1614297575.7,286047005.3,N
1614297595.5,286047007.1,N
